Location: Sungai Igah
(2.7333°N, 114.2500°E)
Time: 22:34:45
(UTC+00:00)

Cosmos 1328 Rocket - Pass Details

Date: 14 June 2021
Orbit: 602 x 626 km, 82.5° (Epoch: 25 July)

Event Time Altitude Azimuth Distance (km) Brightness Sun altitude
Rises 20:27:14 0° 353° (N) 2,862 7.2 -25.3°
Reaches altitude 10° 20:29:27 10° 351° (N) 1,963 6.3 -24.8°
Enters shadow 20:33:08 61° 325° (NW) 699 3.7 -23.9°
